User: anonymous   Login
Location: Bergnerzell
(49.1816°N, 10.2565°E)
Time: 13:13:46
(UTC+00:00)
Language:

SL-8 R/B - Orbit

View from above orbital plane
View from above orbital plane
View from above satellite
View from above satellite

Ground track
Ground track

The orbit data is extracted from the following two-line orbital elements,

1 33066U 08031G   24206.16342167  .00001200  00000-0  22364-3 0  9997
2 33066  48.4417 209.5101 0007989 288.6570  71.3474 14.71392548864351
Epoch (UTC): 24 July 2024 03:55:19
Eccentricity: 0.0007989
inclination: 48.4417°
perigee height: 651 km
apogee height: 662 km
right ascension of ascending node: 209.5101°
argument of perigee: 288.6570°
revolutions per day: 14.71392548
mean anomaly at epoch: 71.3474°
orbit number at epoch: 86435

The dashed part of the orbit path shows where the satellite is in the earth's shadow,  

DLR